owner,sensor,date,latitude,longitude,vertical_datum,sea_water_temperature,qcFlag 
COMPS,ioos:station:USF.COMPS:C10:1,2016-05-01T00:05:00Z,27.1690,-82.9260,-1.0,24.848,2 
COMPS,ioos:station:USF.COMPS:C10:1,2016-05-01T00:35:00Z,27.1690,-82.9260,-1.0,24.786,2 
COMPS,ioos:station:USF.COMPS:C10:1,2016-05-01T01:05:00Z,27.1690,-82.9260,-1.0,24.757,2 
COMPS,ioos:station:USF.COMPS:C10:1,2016-05-01T01:35:00Z,27.1690,-82.9260,-1.0,24.737,2 
COMPS,ioos:station:USF.COMPS:C10:1,2016-05-01T02:05:00Z,27.1690,-82.9260,-1.0,24.709,2 
COMPS,ioos:station:USF.COMPS:C10:1,2016-05-01T02:35:00Z,27.1690,-82.9260,-1.0,24.698,2 
COMPS,ioos:station:USF.COMPS:C10:1,2016-05-01T03:05:00Z,27.1690,-82.9260,-1.0,24.68,2 
COMPS,ioos:station:USF.COMPS:C10:1,2016-05-01T03:35:00Z,27.1690,-82.9260,-1.0,24.669,2 
COMPS,ioos:station:USF.COMPS:C10:1,2016-05-01T04:05:00Z,27.1690,-82.9260,-1.0,24.673,2 
COMPS,ioos:station:USF.COMPS:C10:1,2016-05-01T04:35:00Z,27.1690,-82.9260,-1.0,24.683,2 
COMPS,ioos:station:USF.COMPS:C10:1,2016-05-01T06:05:00Z,27.1690,-82.9260,-1.0,24.725,2 
COMPS,ioos:station:USF.COMPS:C10:1,2016-05-01T06:35:00Z,27.1690,-82.9260,-1.0,24.725,2 
COMPS,ioos:station:USF.COMPS:C10:1,2016-05-01T07:05:00Z,27.1690,-82.9260,-1.0,24.717,2 
COMPS,ioos:station:USF.COMPS:C10:1,2016-05-01T07:35:00Z,27.1690,-82.9260,-1.0,24.712,2 
COMPS,ioos:station:USF.COMPS:C10:1,2016-05-01T08:05:00Z,27.1690,-82.9260,-1.0,24.702,2 
COMPS,ioos:station:USF.COMPS:C10:1,2016-05-01T08:35:00Z,27.1690,-82.9260,-1.0,24.691,2 
COMPS,ioos:station:USF.COMPS:C10:1,2016-05-01T09:05:00Z,27.1690,-82.9260,-1.0,24.678,2 
COMPS,ioos:station:USF.COMPS:C10:1,2016-05-01T09:35:00Z,27.1690,-82.9260,-1.0,24.656,2 
COMPS,ioos:station:USF.COMPS:C10:1,2016-05-01T10:05:00Z,27.1690,-82.9260,-1.0,24.653,2 
COMPS,ioos:station:USF.COMPS:C10:1,2016-05-01T10:35:00Z,27.1690,-82.9260,-1.0,24.649,2 
COMPS,ioos:station:USF.COMPS:C10:1,2016-05-01T11:05:00Z,27.1690,-82.9260,-1.0,24.635,2 
COMPS,ioos:station:USF.COMPS:C10:1,2016-05-01T11:35:00Z,27.1690,-82.9260,-1.0,24.622,2 
COMPS,ioos:station:USF.COMPS:C10:1,2016-05-01T12:05:00Z,27.1690,-82.9260,-1.0,24.611,2 
COMPS,ioos:station:USF.COMPS:C10:1,2016-05-01T12:35:00Z,27.1690,-82.9260,-1.0,24.6,2 
COMPS,ioos:station:USF.COMPS:C10:1,2016-05-01T13:05:00Z,27.1690,-82.9260,-1.0,24.594,2 
COMPS,ioos:station:USF.COMPS:C10:1,2016-05-01T13:35:00Z,27.1690,-82.9260,-1.0,24.581,2 
COMPS,ioos:station:USF.COMPS:C10:1,2016-05-01T14:05:00Z,27.1690,-82.9260,-1.0,24.565,2 
COMPS,ioos:station:USF.COMPS:C10:1,2016-05-01T14:35:00Z,27.1690,-82.9260,-1.0,24.568,2 
COMPS,ioos:station:USF.COMPS:C10:1,2016-05-01T15:05:00Z,27.1690,-82.9260,-1.0,24.573,2 
COMPS,ioos:station:USF.COMPS:C10:1,2016-05-01T15:35:00Z,27.1690,-82.9260,-1.0,24.608,2 
COMPS,ioos:station:USF.COMPS:C10:1,2016-05-01T16:05:00Z,27.1690,-82.9260,-1.0,24.658,2 
COMPS,ioos:station:USF.COMPS:C10:1,2016-05-01T16:35:00Z,27.1690,-82.9260,-1.0,24.701,2 
COMPS,ioos:station:USF.COMPS:C10:1,2016-05-01T17:05:00Z,27.1690,-82.9260,-1.0,24.761,2 
COMPS,ioos:station:USF.COMPS:C10:1,2016-05-01T17:35:00Z,27.1690,-82.9260,-1.0,24.827,2 
COMPS,ioos:station:USF.COMPS:C10:1,2016-05-01T18:05:00Z,27.1690,-82.9260,-1.0,24.914,2 
COMPS,ioos:station:USF.COMPS:C10:1,2016-05-01T18:35:00Z,27.1690,-82.9260,-1.0,25.04,2 
COMPS,ioos:station:USF.COMPS:C10:1,2016-05-01T19:05:00Z,27.1690,-82.9260,-1.0,25.138,2 
COMPS,ioos:station:USF.COMPS:C10:1,2016-05-01T19:35:00Z,27.1690,-82.9260,-1.0,25.21,2 
COMPS,ioos:station:USF.COMPS:C10:1,2016-05-01T20:05:00Z,27.1690,-82.9260,-1.0,25.209,2 
COMPS,ioos:station:USF.COMPS:C10:1,2016-05-01T20:35:00Z,27.1690,-82.9260,-1.0,25.174,2 
COMPS,ioos:station:USF.COMPS:C10:1,2016-05-01T21:05:00Z,27.1690,-82.9260,-1.0,24.949,2 
COMPS,ioos:station:USF.COMPS:C10:1,2016-05-01T21:35:00Z,27.1690,-82.9260,-1.0,25.033,2 
COMPS,ioos:station:USF.COMPS:C10:1,2016-05-01T22:05:00Z,27.1690,-82.9260,-1.0,25.13,2 
COMPS,ioos:station:USF.COMPS:C10:1,2016-05-01T22:35:00Z,27.1690,-82.9260,-1.0,25.189,2 
COMPS,ioos:station:USF.COMPS:C10:1,2016-05-01T23:05:00Z,27.1690,-82.9260,-1.0,25.26,2 
COMPS,ioos:station:USF.COMPS:C10:1,2016-05-01T23:35:00Z,27.1690,-82.9260,-1.0,25.309,2 
COMPS,ioos:station:USF.COMPS:C10:1,2016-05-02T00:05:00Z,27.1690,-82.9260,-1.0,25.289,2 
COMPS,ioos:station:USF.COMPS:C10:1,2016-05-02T00:35:00Z,27.1690,-82.9260,-1.0,25.159,2 
COMPS,ioos:station:USF.COMPS:C10:1,2016-05-02T01:05:00Z,27.1690,-82.9260,-1.0,25.016,2 
COMPS,ioos:station:USF.COMPS:C10:1,2016-05-02T01:35:00Z,27.1690,-82.9260,-1.0,24.988,2 
COMPS,ioos:station:USF.COMPS:C10:1,2016-05-02T04:35:00Z,27.1690,-82.9260,-1.0,24.692,2 
COMPS,ioos:station:USF.COMPS:C10:1,2016-05-02T06:05:00Z,27.1690,-82.9260,-1.0,24.655,2 
COMPS,ioos:station:USF.COMPS:C10:1,2016-05-02T06:35:00Z,27.1690,-82.9260,-1.0,24.64,2 
COMPS,ioos:station:USF.COMPS:C10:1,2016-05-02T07:05:00Z,27.1690,-82.9260,-1.0,24.669,2 
COMPS,ioos:station:USF.COMPS:C10:1,2016-05-02T07:35:00Z,27.1690,-82.9260,-1.0,24.728,2 
COMPS,ioos:station:USF.COMPS:C10:1,2016-05-02T08:05:00Z,27.1690,-82.9260,-1.0,24.764,2 
COMPS,ioos:station:USF.COMPS:C10:1,2016-05-02T08:35:00Z,27.1690,-82.9260,-1.0,24.785,2 
COMPS,ioos:station:USF.COMPS:C10:1,2016-05-02T09:05:00Z,27.1690,-82.9260,-1.0,24.792,2 
COMPS,ioos:station:USF.COMPS:C10:1,2016-05-02T09:35:00Z,27.1690,-82.9260,-1.0,24.805,2 
COMPS,ioos:station:USF.COMPS:C10:1,2016-05-02T10:05:00Z,27.1690,-82.9260,-1.0,24.807,2 
COMPS,ioos:station:USF.COMPS:C10:1,2016-05-02T10:35:00Z,27.1690,-82.9260,-1.0,24.806,2 
COMPS,ioos:station:USF.COMPS:C10:1,2016-05-02T11:05:00Z,27.1690,-82.9260,-1.0,24.803,2 
COMPS,ioos:station:USF.COMPS:C10:1,2016-05-02T11:35:00Z,27.1690,-82.9260,-1.0,24.796,2 
COMPS,ioos:station:USF.COMPS:C10:1,2016-05-02T12:05:00Z,27.1690,-82.9260,-1.0,24.797,2 
COMPS,ioos:station:USF.COMPS:C10:1,2016-05-02T12:35:00Z,27.1690,-82.9260,-1.0,24.81,2 
COMPS,ioos:station:USF.COMPS:C10:1,2016-05-02T13:05:00Z,27.1690,-82.9260,-1.0,24.818,2 
COMPS,ioos:station:USF.COMPS:C10:1,2016-05-02T13:35:00Z,27.1690,-82.9260,-1.0,24.84,2 
COMPS,ioos:station:USF.COMPS:C10:1,2016-05-02T14:05:00Z,27.1690,-82.9260,-1.0,24.876,2 
COMPS,ioos:station:USF.COMPS:C10:1,2016-05-02T14:35:00Z,27.1690,-82.9260,-1.0,24.901,2 
COMPS,ioos:station:USF.COMPS:C10:1,2016-05-02T15:05:00Z,27.1690,-82.9260,-1.0,24.924,2 
COMPS,ioos:station:USF.COMPS:C10:1,2016-05-02T15:35:00Z,27.1690,-82.9260,-1.0,24.908,2 
COMPS,ioos:station:USF.COMPS:C10:1,2016-05-02T16:05:00Z,27.1690,-82.9260,-1.0,24.957,2 
COMPS,ioos:station:USF.COMPS:C10:1,2016-05-02T16:35:00Z,27.1690,-82.9260,-1.0,25.032,2 
COMPS,ioos:station:USF.COMPS:C10:1,2016-05-02T17:05:00Z,27.1690,-82.9260,-1.0,25.099,2 
COMPS,ioos:station:USF.COMPS:C10:1,2016-05-02T17:35:00Z,27.1690,-82.9260,-1.0,25.171,2 
COMPS,ioos:station:USF.COMPS:C10:1,2016-05-02T18:05:00Z,27.1690,-82.9260,-1.0,25.24,2 
COMPS,ioos:station:USF.COMPS:C10:1,2016-05-02T18:35:00Z,27.1690,-82.9260,-1.0,25.314,2 
COMPS,ioos:station:USF.COMPS:C10:1,2016-05-02T19:05:00Z,27.1690,-82.9260,-1.0,25.356,2 
COMPS,ioos:station:USF.COMPS:C10:1,2016-05-02T19:35:00Z,27.1690,-82.9260,-1.0,25.464,2 
COMPS,ioos:station:USF.COMPS:C10:1,2016-05-02T20:05:00Z,27.1690,-82.9260,-1.0,25.533,2 
COMPS,ioos:station:USF.COMPS:C10:1,2016-05-02T20:35:00Z,27.1690,-82.9260,-1.0,25.623,2 
COMPS,ioos:station:USF.COMPS:C10:1,2016-05-02T21:05:00Z,27.1690,-82.9260,-1.0,25.691,2 
COMPS,ioos:station:USF.COMPS:C10:1,2016-05-02T21:35:00Z,27.1690,-82.9260,-1.0,25.78,2 
COMPS,ioos:station:USF.COMPS:C10:1,2016-05-02T22:05:00Z,27.1690,-82.9260,-1.0,25.712,2 
COMPS,ioos:station:USF.COMPS:C10:1,2016-05-02T22:35:00Z,27.1690,-82.9260,-1.0,25.773,2 
COMPS,ioos:station:USF.COMPS:C10:1,2016-05-02T23:05:00Z,27.1690,-82.9260,-1.0,25.667,2 
COMPS,ioos:station:USF.COMPS:C10:1,2016-05-02T23:35:00Z,27.1690,-82.9260,-1.0,25.535,2 
COMPS,ioos:station:USF.COMPS:C10:1,2016-05-03T00:05:00Z,27.1690,-82.9260,-1.0,25.361,2 
COMPS,ioos:station:USF.COMPS:C10:1,2016-05-03T00:35:00Z,27.1690,-82.9260,-1.0,25.252,2 
COMPS,ioos:station:USF.COMPS:C10:1,2016-05-03T01:05:00Z,27.1690,-82.9260,-1.0,25.266,2 
COMPS,ioos:station:USF.COMPS:C10:1,2016-05-03T01:35:00Z,27.1690,-82.9260,-1.0,25.207,2 
COMPS,ioos:station:USF.COMPS:C10:1,2016-05-03T02:05:00Z,27.1690,-82.9260,-1.0,25.265,2 
COMPS,ioos:station:USF.COMPS:C10:1,2016-05-03T02:35:00Z,27.1690,-82.9260,-1.0,25.378,2 
COMPS,ioos:station:USF.COMPS:C10:1,2016-05-03T03:05:00Z,27.1690,-82.9260,-1.0,25.309,2 
COMPS,ioos:station:USF.COMPS:C10:1,2016-05-03T03:35:00Z,27.1690,-82.9260,-1.0,25.209,2 
COMPS,ioos:station:USF.COMPS:C10:1,2016-05-03T05:05:00Z,27.1690,-82.9260,-1.0,25.211,2 
COMPS,ioos:station:USF.COMPS:C10:1,2016-05-03T05:35:00Z,27.1690,-82.9260,-1.0,25.223,2 
COMPS,ioos:station:USF.COMPS:C10:1,2016-05-03T06:05:00Z,27.1690,-82.9260,-1.0,25.15,2 
COMPS,ioos:station:USF.COMPS:C10:1,2016-05-03T06:35:00Z,27.1690,-82.9260,-1.0,25.114,2 
COMPS,ioos:station:USF.COMPS:C10:1,2016-05-03T07:05:00Z,27.1690,-82.9260,-1.0,25.081,2 
COMPS,ioos:station:USF.COMPS:C10:1,2016-05-03T07:35:00Z,27.1690,-82.9260,-1.0,25.047,2 
COMPS,ioos:station:USF.COMPS:C10:1,2016-05-03T08:05:00Z,27.1690,-82.9260,-1.0,25.014,2 
COMPS,ioos:station:USF.COMPS:C10:1,2016-05-03T08:35:00Z,27.1690,-82.9260,-1.0,25.0,2 
COMPS,ioos:station:USF.COMPS:C10:1,2016-05-03T09:05:00Z,27.1690,-82.9260,-1.0,24.999,2 
COMPS,ioos:station:USF.COMPS:C10:1,2016-05-03T09:35:00Z,27.1690,-82.9260,-1.0,24.998,2 
COMPS,ioos:station:USF.COMPS:C10:1,2016-05-03T10:05:00Z,27.1690,-82.9260,-1.0,24.983,2 
COMPS,ioos:station:USF.COMPS:C10:1,2016-05-03T10:35:00Z,27.1690,-82.9260,-1.0,25.04,2 
COMPS,ioos:station:USF.COMPS:C10:1,2016-05-03T11:05:00Z,27.1690,-82.9260,-1.0,25.075,2 
COMPS,ioos:station:USF.COMPS:C10:1,2016-05-03T11:35:00Z,27.1690,-82.9260,-1.0,25.089,2 
COMPS,ioos:station:USF.COMPS:C10:1,2016-05-03T12:05:00Z,27.1690,-82.9260,-1.0,25.098,2 
COMPS,ioos:station:USF.COMPS:C10:1,2016-05-03T12:35:00Z,27.1690,-82.9260,-1.0,25.082,2 
COMPS,ioos:station:USF.COMPS:C10:1,2016-05-03T13:05:00Z,27.1690,-82.9260,-1.0,25.104,2 
COMPS,ioos:station:USF.COMPS:C10:1,2016-05-03T13:35:00Z,27.1690,-82.9260,-1.0,25.148,2 
COMPS,ioos:station:USF.COMPS:C10:1,2016-05-03T14:05:00Z,27.1690,-82.9260,-1.0,25.191,2 
COMPS,ioos:station:USF.COMPS:C10:1,2016-05-03T14:35:00Z,27.1690,-82.9260,-1.0,25.2,2 
COMPS,ioos:station:USF.COMPS:C10:1,2016-05-03T15:05:00Z,27.1690,-82.9260,-1.0,25.192,2 
COMPS,ioos:station:USF.COMPS:C10:1,2016-05-03T15:35:00Z,27.1690,-82.9260,-1.0,25.473,2 
COMPS,ioos:station:USF.COMPS:C10:1,2016-05-03T16:05:00Z,27.1690,-82.9260,-1.0,25.671,2 
COMPS,ioos:station:USF.COMPS:C10:1,2016-05-03T16:35:00Z,27.1690,-82.9260,-1.0,25.637,2 
COMPS,ioos:station:USF.COMPS:C10:1,2016-05-03T17:05:00Z,27.1690,-82.9260,-1.0,25.773,2 
COMPS,ioos:station:USF.COMPS:C10:1,2016-05-03T17:35:00Z,27.1690,-82.9260,-1.0,25.887,2 
COMPS,ioos:station:USF.COMPS:C10:1,2016-05-03T18:05:00Z,27.1690,-82.9260,-1.0,26.031,2 
COMPS,ioos:station:USF.COMPS:C10:1,2016-05-03T18:35:00Z,27.1690,-82.9260,-1.0,26.204,2 
COMPS,ioos:station:USF.COMPS:C10:1,2016-05-03T19:05:00Z,27.1690,-82.9260,-1.0,26.285,2 
COMPS,ioos:station:USF.COMPS:C10:1,2016-05-03T19:35:00Z,27.1690,-82.9260,-1.0,26.303,2 
COMPS,ioos:station:USF.COMPS:C10:1,2016-05-03T20:05:00Z,27.1690,-82.9260,-1.0,26.412,2 
COMPS,ioos:station:USF.COMPS:C10:1,2016-05-03T20:35:00Z,27.1690,-82.9260,-1.0,26.781,2 
COMPS,ioos:station:USF.COMPS:C10:1,2016-05-03T21:05:00Z,27.1690,-82.9260,-1.0,26.765,2 
COMPS,ioos:station:USF.COMPS:C10:1,2016-05-03T21:35:00Z,27.1690,-82.9260,-1.0,26.776,2 
COMPS,ioos:station:USF.COMPS:C10:1,2016-05-03T22:05:00Z,27.1690,-82.9260,-1.0,26.562,2 
COMPS,ioos:station:USF.COMPS:C10:1,2016-05-03T22:35:00Z,27.1690,-82.9260,-1.0,26.522,2 
COMPS,ioos:station:USF.COMPS:C10:1,2016-05-03T23:05:00Z,27.1690,-82.9260,-1.0,26.414,2 
COMPS,ioos:station:USF.COMPS:C10:1,2016-05-03T23:35:00Z,27.1690,-82.9260,-1.0,26.289,2 
COMPS,ioos:station:USF.COMPS:C10:1,2016-05-04T00:05:00Z,27.1690,-82.9260,-1.0,26.186,2 
COMPS,ioos:station:USF.COMPS:C10:1,2016-05-04T00:35:00Z,27.1690,-82.9260,-1.0,25.906,2 
COMPS,ioos:station:USF.COMPS:C10:1,2016-05-04T01:05:00Z,27.1690,-82.9260,-1.0,25.862,2 
COMPS,ioos:station:USF.COMPS:C10:1,2016-05-04T01:35:00Z,27.1690,-82.9260,-1.0,25.735,2 
COMPS,ioos:station:USF.COMPS:C10:1,2016-05-04T02:05:00Z,27.1690,-82.9260,-1.0,25.802,2 
COMPS,ioos:station:USF.COMPS:C10:1,2016-05-04T02:35:00Z,27.1690,-82.9260,-1.0,25.763,2 
COMPS,ioos:station:USF.COMPS:C10:1,2016-05-04T03:05:00Z,27.1690,-82.9260,-1.0,25.746,2 
COMPS,ioos:station:USF.COMPS:C10:1,2016-05-04T03:35:00Z,27.1690,-82.9260,-1.0,25.69,2 
COMPS,ioos:station:USF.COMPS:C10:1,2016-05-04T04:05:00Z,27.1690,-82.9260,-1.0,25.655,2 
COMPS,ioos:station:USF.COMPS:C10:1,2016-05-04T04:35:00Z,27.1690,-82.9260,-1.0,25.615,2 
COMPS,ioos:station:USF.COMPS:C10:1,2016-05-04T07:05:00Z,27.1690,-82.9260,-1.0,25.618,2 
COMPS,ioos:station:USF.COMPS:C10:1,2016-05-04T07:35:00Z,27.1690,-82.9260,-1.0,25.644,2 
COMPS,ioos:station:USF.COMPS:C10:1,2016-05-04T08:05:00Z,27.1690,-82.9260,-1.0,25.679,2 
COMPS,ioos:station:USF.COMPS:C10:1,2016-05-04T08:35:00Z,27.1690,-82.9260,-1.0,25.697,2 
COMPS,ioos:station:USF.COMPS:C10:1,2016-05-04T09:05:00Z,27.1690,-82.9260,-1.0,25.723,2 
COMPS,ioos:station:USF.COMPS:C10:1,2016-05-04T09:35:00Z,27.1690,-82.9260,-1.0,25.72,2 
COMPS,ioos:station:USF.COMPS:C10:1,2016-05-04T10:05:00Z,27.1690,-82.9260,-1.0,25.719,2 
COMPS,ioos:station:USF.COMPS:C10:1,2016-05-04T10:35:00Z,27.1690,-82.9260,-1.0,25.711,2 
COMPS,ioos:station:USF.COMPS:C10:1,2016-05-04T11:05:00Z,27.1690,-82.9260,-1.0,25.692,2 
COMPS,ioos:station:USF.COMPS:C10:1,2016-05-04T11:35:00Z,27.1690,-82.9260,-1.0,25.663,2 
COMPS,ioos:station:USF.COMPS:C10:1,2016-05-04T12:05:00Z,27.1690,-82.9260,-1.0,25.652,2 
COMPS,ioos:station:USF.COMPS:C10:1,2016-05-04T12:35:00Z,27.1690,-82.9260,-1.0,25.63,2 
COMPS,ioos:station:USF.COMPS:C10:1,2016-05-04T13:05:00Z,27.1690,-82.9260,-1.0,25.593,2 
COMPS,ioos:station:USF.COMPS:C10:1,2016-05-04T13:35:00Z,27.1690,-82.9260,-1.0,25.549,2 
COMPS,ioos:station:USF.COMPS:C10:1,2016-05-04T17:05:00Z,27.1690,-82.9260,-1.0,25.442,2 
COMPS,ioos:station:USF.COMPS:C10:1,2016-05-04T17:35:00Z,27.1690,-82.9260,-1.0,25.465,2 
COMPS,ioos:station:USF.COMPS:C10:1,2016-05-04T18:05:00Z,27.1690,-82.9260,-1.0,25.473,2 
COMPS,ioos:station:USF.COMPS:C10:1,2016-05-04T18:35:00Z,27.1690,-82.9260,-1.0,25.45,2 
COMPS,ioos:station:USF.COMPS:C10:1,2016-05-04T19:05:00Z,27.1690,-82.9260,-1.0,25.477,2 
COMPS,ioos:station:USF.COMPS:C10:1,2016-05-04T19:35:00Z,27.1690,-82.9260,-1.0,25.465,2 
COMPS,ioos:station:USF.COMPS:C10:1,2016-05-04T20:05:00Z,27.1690,-82.9260,-1.0,25.444,2 
COMPS,ioos:station:USF.COMPS:C10:1,2016-05-04T20:35:00Z,27.1690,-82.9260,-1.0,25.444,2 
COMPS,ioos:station:USF.COMPS:C10:1,2016-05-04T21:05:00Z,27.1690,-82.9260,-1.0,25.411,2 
COMPS,ioos:station:USF.COMPS:C10:1,2016-05-04T21:35:00Z,27.1690,-82.9260,-1.0,25.374,2 
COMPS,ioos:station:USF.COMPS:C10:1,2016-05-04T22:05:00Z,27.1690,-82.9260,-1.0,25.367,2 
COMPS,ioos:station:USF.COMPS:C10:1,2016-05-04T22:35:00Z,27.1690,-82.9260,-1.0,25.371,2 
COMPS,ioos:station:USF.COMPS:C10:1,2016-05-04T23:05:00Z,27.1690,-82.9260,-1.0,25.362,2 
COMPS,ioos:station:USF.COMPS:C10:1,2016-05-04T23:35:00Z,27.1690,-82.9260,-1.0,25.359,2 
COMPS,ioos:station:USF.COMPS:C10:1,2016-05-05T00:05:00Z,27.1690,-82.9260,-1.0,25.361,2 
COMPS,ioos:station:USF.COMPS:C10:1,2016-05-05T00:35:00Z,27.1690,-82.9260,-1.0,25.343,2 
COMPS,ioos:station:USF.COMPS:C10:1,2016-05-05T02:05:00Z,27.1690,-82.9260,-1.0,25.192,2 
COMPS,ioos:station:USF.COMPS:C10:1,2016-05-05T02:35:00Z,27.1690,-82.9260,-1.0,25.166,2 
COMPS,ioos:station:USF.COMPS:C10:1,2016-05-05T03:05:00Z,27.1690,-82.9260,-1.0,25.128,2 
COMPS,ioos:station:USF.COMPS:C10:1,2016-05-05T03:35:00Z,27.1690,-82.9260,-1.0,25.086,2 
COMPS,ioos:station:USF.COMPS:C10:1,2016-05-05T04:05:00Z,27.1690,-82.9260,-1.0,25.04,2 
COMPS,ioos:station:USF.COMPS:C10:1,2016-05-05T04:35:00Z,27.1690,-82.9260,-1.0,24.983,2 
COMPS,ioos:station:USF.COMPS:C10:1,2016-05-05T10:05:00Z,27.1690,-82.9260,-1.0,24.691,2 
COMPS,ioos:station:USF.COMPS:C10:1,2016-05-05T10:35:00Z,27.1690,-82.9260,-1.0,24.691,2 
COMPS,ioos:station:USF.COMPS:C10:1,2016-05-05T12:05:00Z,27.1690,-82.9260,-1.0,24.697,2 
COMPS,ioos:station:USF.COMPS:C10:1,2016-05-05T12:35:00Z,27.1690,-82.9260,-1.0,24.69,2 
COMPS,ioos:station:USF.COMPS:C10:1,2016-05-05T13:05:00Z,27.1690,-82.9260,-1.0,24.69,2 
COMPS,ioos:station:USF.COMPS:C10:1,2016-05-05T13:35:00Z,27.1690,-82.9260,-1.0,24.702,2 
COMPS,ioos:station:USF.COMPS:C10:1,2016-05-05T17:05:00Z,27.1690,-82.9260,-1.0,24.745,2 
COMPS,ioos:station:USF.COMPS:C10:1,2016-05-05T17:35:00Z,27.1690,-82.9260,-1.0,24.793,2 
COMPS,ioos:station:USF.COMPS:C10:1,2016-05-05T18:05:00Z,27.1690,-82.9260,-1.0,24.831,2 
COMPS,ioos:station:USF.COMPS:C10:1,2016-05-05T18:35:00Z,27.1690,-82.9260,-1.0,24.88,2 
COMPS,ioos:station:USF.COMPS:C10:1,2016-05-05T19:05:00Z,27.1690,-82.9260,-1.0,24.947,2 
COMPS,ioos:station:USF.COMPS:C10:1,2016-05-05T19:35:00Z,27.1690,-82.9260,-1.0,25.003,2 
COMPS,ioos:station:USF.COMPS:C10:1,2016-05-05T20:05:00Z,27.1690,-82.9260,-1.0,25.098,2 
COMPS,ioos:station:USF.COMPS:C10:1,2016-05-05T20:35:00Z,27.1690,-82.9260,-1.0,25.132,2 
COMPS,ioos:station:USF.COMPS:C10:1,2016-05-05T21:05:00Z,27.1690,-82.9260,-1.0,25.13,2 
COMPS,ioos:station:USF.COMPS:C10:1,2016-05-05T21:35:00Z,27.1690,-82.9260,-1.0,25.101,2 
COMPS,ioos:station:USF.COMPS:C10:1,2016-05-05T22:05:00Z,27.1690,-82.9260,-1.0,25.11,2 
COMPS,ioos:station:USF.COMPS:C10:1,2016-05-05T22:35:00Z,27.1690,-82.9260,-1.0,25.089,2 
COMPS,ioos:station:USF.COMPS:C10:1,2016-05-05T23:05:00Z,27.1690,-82.9260,-1.0,25.071,2 
COMPS,ioos:station:USF.COMPS:C10:1,2016-05-05T23:35:00Z,27.1690,-82.9260,-1.0,25.057,2 
COMPS,ioos:station:USF.COMPS:C10:1,2016-05-06T00:05:00Z,27.1690,-82.9260,-1.0,25.03,2 
COMPS,ioos:station:USF.COMPS:C10:1,2016-05-06T00:35:00Z,27.1690,-82.9260,-1.0,24.995,2 
COMPS,ioos:station:USF.COMPS:C10:1,2016-05-06T03:05:00Z,27.1690,-82.9260,-1.0,24.803,2 
COMPS,ioos:station:USF.COMPS:C10:1,2016-05-06T03:35:00Z,27.1690,-82.9260,-1.0,24.778,2 
COMPS,ioos:station:USF.COMPS:C10:1,2016-05-06T05:05:00Z,27.1690,-82.9260,-1.0,24.684,2 
COMPS,ioos:station:USF.COMPS:C10:1,2016-05-06T05:35:00Z,27.1690,-82.9260,-1.0,24.639,2 
COMPS,ioos:station:USF.COMPS:C10:1,2016-05-06T14:05:00Z,27.1690,-82.9260,-1.0,24.587,2 
COMPS,ioos:station:USF.COMPS:C10:1,2016-05-06T14:35:00Z,27.1690,-82.9260,-1.0,24.574,2 
COMPS,ioos:station:USF.COMPS:C10:1,2016-05-06T15:05:00Z,27.1690,-82.9260,-1.0,24.563,2 
COMPS,ioos:station:USF.COMPS:C10:1,2016-05-06T15:35:00Z,27.1690,-82.9260,-1.0,24.539,2 
COMPS,ioos:station:USF.COMPS:C10:1,2016-05-06T19:05:00Z,27.1690,-82.9260,-1.0,24.726,2 
COMPS,ioos:station:USF.COMPS:C10:1,2016-05-06T19:35:00Z,27.1690,-82.9260,-1.0,24.723,2 
COMPS,ioos:station:USF.COMPS:C10:1,2016-05-06T20:05:00Z,27.1690,-82.9260,-1.0,24.727,2 
COMPS,ioos:station:USF.COMPS:C10:1,2016-05-06T20:35:00Z,27.1690,-82.9260,-1.0,24.691,2 
COMPS,ioos:station:USF.COMPS:C10:1,2016-05-06T21:05:00Z,27.1690,-82.9260,-1.0,24.623,2 
COMPS,ioos:station:USF.COMPS:C10:1,2016-05-06T21:35:00Z,27.1690,-82.9260,-1.0,24.62,2 
COMPS,ioos:station:USF.COMPS:C10:1,2016-05-06T22:05:00Z,27.1690,-82.9260,-1.0,24.611,2 
COMPS,ioos:station:USF.COMPS:C10:1,2016-05-06T22:35:00Z,27.1690,-82.9260,-1.0,24.645,2 
COMPS,ioos:station:USF.COMPS:C10:1,2016-05-06T23:05:00Z,27.1690,-82.9260,-1.0,24.638,2 
COMPS,ioos:station:USF.COMPS:C10:1,2016-05-06T23:35:00Z,27.1690,-82.9260,-1.0,24.593,2 
COMPS,ioos:station:USF.COMPS:C10:1,2016-05-07T01:05:00Z,27.1690,-82.9260,-1.0,24.486,2 
COMPS,ioos:station:USF.COMPS:C10:1,2016-05-07T01:35:00Z,27.1690,-82.9260,-1.0,24.451,2 
COMPS,ioos:station:USF.COMPS:C10:1,2016-05-07T02:05:00Z,27.1690,-82.9260,-1.0,24.396,2 
COMPS,ioos:station:USF.COMPS:C10:1,2016-05-07T02:35:00Z,27.1690,-82.9260,-1.0,24.363,2 
COMPS,ioos:station:USF.COMPS:C10:1,2016-05-07T03:05:00Z,27.1690,-82.9260,-1.0,24.353,2 
COMPS,ioos:station:USF.COMPS:C10:1,2016-05-07T03:35:00Z,27.1690,-82.9260,-1.0,24.293,2 
COMPS,ioos:station:USF.COMPS:C10:1,2016-05-07T21:05:00Z,27.1690,-82.9260,-1.0,24.399,2 
COMPS,ioos:station:USF.COMPS:C10:1,2016-05-07T21:35:00Z,27.1690,-82.9260,-1.0,24.381,2 
COMPS,ioos:station:USF.COMPS:C10:1,2016-05-07T22:05:00Z,27.1690,-82.9260,-1.0,24.358,2 
COMPS,ioos:station:USF.COMPS:C10:1,2016-05-07T22:35:00Z,27.1690,-82.9260,-1.0,24.334,2 
COMPS,ioos:station:USF.COMPS:C10:1,2016-05-08T00:05:00Z,27.1690,-82.9260,-1.0,24.26,2 
COMPS,ioos:station:USF.COMPS:C10:1,2016-05-08T00:35:00Z,27.1690,-82.9260,-1.0,24.241,2 
COMPS,ioos:station:USF.COMPS:C10:1,2016-05-08T01:05:00Z,27.1690,-82.9260,-1.0,24.211,2 
COMPS,ioos:station:USF.COMPS:C10:1,2016-05-08T01:35:00Z,27.1690,-82.9260,-1.0,24.183,2 
COMPS,ioos:station:USF.COMPS:C10:1,2016-05-08T02:05:00Z,27.1690,-82.9260,-1.0,24.141,2 
COMPS,ioos:station:USF.COMPS:C10:1,2016-05-08T02:35:00Z,27.1690,-82.9260,-1.0,24.127,2 
COMPS,ioos:station:USF.COMPS:C10:1,2016-05-08T03:05:00Z,27.1690,-82.9260,-1.0,24.111,2 
COMPS,ioos:station:USF.COMPS:C10:1,2016-05-08T03:35:00Z,27.1690,-82.9260,-1.0,24.085,2 
COMPS,ioos:station:USF.COMPS:C10:1,2016-05-08T05:05:00Z,27.1690,-82.9260,-1.0,23.981,2 
COMPS,ioos:station:USF.COMPS:C10:1,2016-05-08T05:35:00Z,27.1690,-82.9260,-1.0,23.934,2 
COMPS,ioos:station:USF.COMPS:C10:1,2016-05-08T08:05:00Z,27.1690,-82.9260,-1.0,23.825,2 
COMPS,ioos:station:USF.COMPS:C10:1,2016-05-08T08:35:00Z,27.1690,-82.9260,-1.0,23.785,2 
COMPS,ioos:station:USF.COMPS:C10:1,2016-05-08T10:05:00Z,27.1690,-82.9260,-1.0,23.648,2 
COMPS,ioos:station:USF.COMPS:C10:1,2016-05-08T10:35:00Z,27.1690,-82.9260,-1.0,23.643,2 
COMPS,ioos:station:USF.COMPS:C10:1,2016-05-08T11:05:00Z,27.1690,-82.9260,-1.0,23.621,2 
COMPS,ioos:station:USF.COMPS:C10:1,2016-05-08T11:35:00Z,27.1690,-82.9260,-1.0,23.614,2 
COMPS,ioos:station:USF.COMPS:C10:1,2016-05-08T14:05:00Z,27.1690,-82.9260,-1.0,23.695,2 
COMPS,ioos:station:USF.COMPS:C10:1,2016-05-08T14:35:00Z,27.1690,-82.9260,-1.0,23.744,2 
COMPS,ioos:station:USF.COMPS:C10:1,2016-05-08T16:05:00Z,27.1690,-82.9260,-1.0,23.924,2 
COMPS,ioos:station:USF.COMPS:C10:1,2016-05-08T16:35:00Z,27.1690,-82.9260,-1.0,23.987,2 
COMPS,ioos:station:USF.COMPS:C10:1,2016-05-08T17:05:00Z,27.1690,-82.9260,-1.0,24.088,2 
COMPS,ioos:station:USF.COMPS:C10:1,2016-05-08T17:35:00Z,27.1690,-82.9260,-1.0,24.183,2 
COMPS,ioos:station:USF.COMPS:C10:1,2016-05-08T18:05:00Z,27.1690,-82.9260,-1.0,24.246,2 
COMPS,ioos:station:USF.COMPS:C10:1,2016-05-08T18:35:00Z,27.1690,-82.9260,-1.0,24.326,2 
COMPS,ioos:station:USF.COMPS:C10:1,2016-05-08T19:05:00Z,27.1690,-82.9260,-1.0,24.435,2 
COMPS,ioos:station:USF.COMPS:C10:1,2016-05-08T19:35:00Z,27.1690,-82.9260,-1.0,24.542,2 
COMPS,ioos:station:USF.COMPS:C10:1,2016-05-08T20:05:00Z,27.1690,-82.9260,-1.0,24.53,2 
COMPS,ioos:station:USF.COMPS:C10:1,2016-05-08T20:35:00Z,27.1690,-82.9260,-1.0,24.401,2 
COMPS,ioos:station:USF.COMPS:C10:1,2016-05-08T21:05:00Z,27.1690,-82.9260,-1.0,24.365,2 
COMPS,ioos:station:USF.COMPS:C10:1,2016-05-08T21:35:00Z,27.1690,-82.9260,-1.0,24.347,2 
COMPS,ioos:station:USF.COMPS:C10:1,2016-05-08T22:05:00Z,27.1690,-82.9260,-1.0,24.357,2 
COMPS,ioos:station:USF.COMPS:C10:1,2016-05-08T22:35:00Z,27.1690,-82.9260,-1.0,24.336,2 
COMPS,ioos:station:USF.COMPS:C10:1,2016-05-08T23:05:00Z,27.1690,-82.9260,-1.0,24.304,2 
COMPS,ioos:station:USF.COMPS:C10:1,2016-05-08T23:35:00Z,27.1690,-82.9260,-1.0,24.258,2 
COMPS,ioos:station:USF.COMPS:C10:1,2016-05-09T00:05:00Z,27.1690,-82.9260,-1.0,24.21,2 
COMPS,ioos:station:USF.COMPS:C10:1,2016-05-09T00:35:00Z,27.1690,-82.9260,-1.0,24.179,2 
COMPS,ioos:station:USF.COMPS:C10:1,2016-05-09T01:05:00Z,27.1690,-82.9260,-1.0,24.166,2 
COMPS,ioos:station:USF.COMPS:C10:1,2016-05-09T01:35:00Z,27.1690,-82.9260,-1.0,24.154,2 
COMPS,ioos:station:USF.COMPS:C10:1,2016-05-09T02:05:00Z,27.1690,-82.9260,-1.0,24.105,2 
COMPS,ioos:station:USF.COMPS:C10:1,2016-05-09T02:35:00Z,27.1690,-82.9260,-1.0,24.069,2 
COMPS,ioos:station:USF.COMPS:C10:1,2016-05-09T03:05:00Z,27.1690,-82.9260,-1.0,24.031,2 
COMPS,ioos:station:USF.COMPS:C10:1,2016-05-09T03:35:00Z,27.1690,-82.9260,-1.0,24.032,2 
COMPS,ioos:station:USF.COMPS:C10:1,2016-05-09T04:05:00Z,27.1690,-82.9260,-1.0,24.036,2 